| time (UTC) | temp F | wind direction | speed knots | gust knots | rain 1hr in | rain 24hr in | rain mn in | humidity % | barometer mb |
| 20260505111533 | 68 | 295 | 0.9 | 2.6 | 0.00 | 0.01 | 0.01 | 92 | 1018.5 |
| 20260505101549 | 69 | 269 | 0.0 | 1.7 | 0.00 | 0.01 | 0.01 | 89 | 1018.1 |
| 20260505100054 | 70 | 269 | 0.0 | 1.7 | 0.00 | 0.01 | 0.01 | 88 | 1017.9 |
| 20260505094532 | 70 | 178 | 0.0 | 0.9 | 0.00 | 0.01 | 0.01 | 88 | 1017.7 |
| 20260505093030 | 70 | 295 | 0.0 | 1.7 | 0.00 | 0.01 | 0.01 | 88 | 1018.0 |
| 20260505091529 | 70 | 331 | 0.9 | 1.7 | 0.00 | 0.01 | 0.01 | 87 | 1017.8 |
| 20260505090028 | 70 | 1 | 0.9 | 1.7 | 0.00 | 0.01 | 0.01 | 87 | 1017.8 |
| 20260505084528 | 71 | 335 | 0.9 | 2.6 | 0.00 | 0.01 | 0.01 | 87 | 1017.6 |
| 20260505083027 | 71 | 295 | 0.0 | 1.7 | 0.00 | 0.01 | 0.01 | 86 | 1017.1 |
| 20260505081526 | 72 | 295 | 0.9 | 2.6 | 0.00 | 0.01 | 0.01 | 84 | 1017.0 |
| 20260505080025 | 72 | 1 | 0.9 | 2.6 | 0.00 | 0.01 | 0.01 | 83 | 1016.7 |
| 20260505074525 | 73 | 347 | 0.9 | 2.6 | 0.00 | 0.01 | 0.01 | 83 | 1016.7 |
| 20260505073034 | 73 | 314 | 0.9 | 1.7 | 0.00 | 0.01 | 0.01 | 82 | 1016.7 |
| 20260505071523 | 73 | 1 | 0.9 | 2.6 | 0.00 | 0.01 | 0.01 | 81 | 1016.4 |
| 20260505070023 | 74 | 46 | 1.7 | 2.6 | 0.00 | 0.01 | 0.01 | 79 | 1016.3 |
| 20260505064522 | 74 | 1 | 0.0 | 2.6 | 0.00 | 0.01 | 0.01 | 78 | 1016.2 |
| 20260505063021 | 75 | 89 | 0.0 | 2.6 | 0.00 | 0.01 | 0.01 | 77 | 1016.2 |
| 20260505061525 | 75 | 306 | 0.9 | 3.5 | 0.00 | 0.01 | 0.01 | 76 | 1016.3 |
| 20260505060023 | 75 | 1 | 0.9 | 2.6 | 0.00 | 0.01 | 0.01 | 75 | 1016.1 |
| 20260505054519 | 76 | 89 | 0.0 | 3.5 | 0.00 | 0.01 | 0.01 | 75 | 1015.9 |
| 20260505053030 | 76 | 28 | 0.9 | 4.3 | 0.00 | 0.01 | 0.01 | 74 | 1015.7 |
| 20260505051534 | 77 | 349 | 0.9 | 4.3 | 0.00 | 0.01 | 0.01 | 72 | 1016.0 |
| 20260505041513 | 78 | 331 | 1.7 | 4.3 | 0.00 | 0.01 | 0.01 | 69 | 1015.6 |
| 20260505040012 | 78 | 46 | 0.9 | 4.3 | 0.00 | 0.01 | 0.01 | 71 | 1015.4 |
| 20260505034509 | 78 | 314 | 1.7 | 4.3 | 0.00 | 0.01 | 0.01 | 69 | 1015.6 |
| 20260505033009 | 78 | 112 | 0.9 | 3.5 | 0.00 | 0.01 | 0.01 | 69 | 1015.6 |
| 20260505031509 | 77 | 148 | 0.0 | 5.2 | 0.00 | 0.01 | 0.01 | 69 | 1015.5 |
| 20260505030006 | 79 | 8 | 0.9 | 3.5 | 0.00 | 0.01 | 0.01 | 69 | 1015.7 |
| 20260505024502 | 77 | 126 | 0.9 | 3.5 | 0.00 | 0.01 | 0.01 | 72 | 1015.9 |
| 20260505023105 | 77 | 162 | 1.7 | 5.2 | 0.00 | 0.01 | 0.01 | 72 | 1016.4 |
| 20260505021557 | 77 | 121 | 2.6 | 5.2 | 0.00 | 0.01 | 0.01 | 73 | 1016.6 |
| 20260505020057 | 76 | 170 | 0.9 | 4.3 | 0.00 | 0.01 | 0.01 | 76 | 1016.6 |
| 20260505014558 | 76 | 120 | 2.6 | 6.1 | 0.00 | 0.01 | 0.01 | 75 | 1017.0 |
| 20260505013056 | 76 | 120 | 1.7 | 6.1 | 0.00 | 0.01 | 0.01 | 77 | 1017.1 |
| 20260505011554 | 75 | 39 | 0.9 | 5.2 | 0.00 | 0.01 | 0.01 | 76 | 1017.4 |
| 20260505010109 | 76 | 196 | 2.6 | 6.1 | 0.00 | 0.01 | 0.01 | 77 | 1017.8 |
| 20260505004548 | 74 | 135 | 2.6 | 4.3 | 0.00 | 0.01 | 0.01 | 80 | 1018.0 |
| 20260505003047 | 75 | 185 | 3.5 | 6.1 | 0.00 | 0.01 | 0.01 | 80 | 1018.1 |
| 20260505001542 | 75 | 178 | 0.9 | 7.0 | 0.00 | 0.01 | 0.01 | 79 | 1018.3 |
| 20260505000044 | 74 | 128 | 2.6 | 7.8 | 0.00 | 0.01 | 0.01 | 83 | 1018.4 |
| 20260504234533 | 72 | 336 | 1.7 | 3.5 | 0.00 | 0.01 | 0.01 | 85 | 1018.4 |
| 20260504233031 | 72 | 135 | 1.7 | 6.1 | 0.00 | 0.01 | 0.01 | 87 | 1018.6 |
| 20260504231526 | 71 | 111 | 3.5 | 6.1 | 0.00 | 0.01 | 0.01 | 93 | 1018.7 |
| 20260504230036 | 69 | 186 | 2.6 | 6.1 | 0.00 | 0.01 | 0.01 | 96 | 1018.7 |
| 20260504224522 | 67 | 152 | 2.6 | 7.0 | 0.00 | 0.01 | 0.01 | 96 | 1018.7 |
| 20260504223016 | 67 | 152 | 1.7 | 3.5 | 0.00 | 0.01 | 0.01 | 96 | 1018.7 |
| 20260504221534 | 66 | 46 | 0.0 | 2.6 | 0.01 | 0.01 | 0.01 | 96 | 1018.7 |
| 20260504220012 | 65 | 89 | 0.0 | 1.7 | 0.01 | 0.01 | 0.01 | 96 | 1018.6 |
| 20260504214511 | 65 | 187 | 0.9 | 2.6 | 0.01 | 0.02 | 0.01 | 96 | 1018.6 |
| 20260504213009 | 64 | 135 | 0.0 | 1.7 | 0.01 | 0.02 | 0.01 | 96 | 1018.5 |
| 20260504211508 | 64 | 135 | 0.9 | 2.6 | 0.00 | 0.02 | 0.00 | 96 | 1018.4 |
| 20260504210006 | 64 | 135 | 0.0 | 1.7 | 0.00 | 0.02 | 0.00 | 95 | 1018.3 |
| 20260504204502 | 64 | 145 | 0.9 | 2.6 | 0.00 | 0.02 | 0.00 | 95 | 1018.0 |
| 20260504203001 | 64 | 178 | 0.0 | 2.6 | 0.00 | 0.02 | 0.00 | 95 | 1017.9 |
| 20260504201559 | 64 | 295 | 0.9 | 2.6 | 0.00 | 0.02 | 0.00 | 95 | 1018.0 |
| 20260504194600 | 64 | 276 | 1.7 | 2.6 | 0.00 | 0.02 | 0.00 | 95 | 1017.5 |
| 20260504193102 | 64 | 173 | 0.9 | 2.6 | 0.00 | 0.02 | 0.00 | 95 | 1017.4 |
| 20260504191601 | 64 | 310 | 0.9 | 2.6 | 0.00 | 0.02 | 0.00 | 95 | 1017.2 |
| 20260504190054 | 64 | 178 | 0.0 | 1.7 | 0.00 | 0.02 | 0.00 | 95 | 1017.2 |
| 20260504184553 | 64 | 306 | 0.9 | 2.6 | 0.00 | 0.02 | 0.00 | 95 | 1017.1 |
| 20260504183051 | 65 | 308 | 0.0 | 2.6 | 0.00 | 0.02 | 0.00 | 95 | 1017.1 |
| 20260504181551 | 65 | 223 | 1.7 | 3.5 | 0.00 | 0.02 | 0.00 | 95 | 1017.1 |
| 20260504180050 | 65 | 46 | 0.0 | 3.5 | 0.00 | 0.02 | 0.00 | 95 | 1016.8 |
| 20260504174547 | 66 | 269 | 0.9 | 2.6 | 0.00 | 0.02 | 0.00 | 95 | 1016.8 |
| 20260504173046 | 66 | 269 | 1.7 | 2.6 | 0.00 | 0.02 | 0.00 | 95 | 1016.9 |
| 20260504171544 | 66 | 283 | 1.7 | 4.3 | 0.00 | 0.02 | 0.00 | 95 | 1017.0 |